Total_Precipitation_Accumulation
0.00 0.01 0.06 0.16 0.34 0.59 0.74 0.47 0.37 0.29 0.26 0.35 0.39 0.33 0.35 0.37 0.36 0.39 0.14 0.04 0.02 0.01 0.02 0.04 0.05 0.03 0.03 0.03 0.05 0.06 0.08 0.09 0.08 0.07 0.06 0.04 0.02 0.01 0.02 0.02 0.02 0.02 0.02 0.02 0.02 0.02 0.02 0.01 0.01
0.00 0.01 0.05 0.14 0.41 1.02 1.04 0.51 0.30 0.20 0.27 0.42 0.52 0.47 0.34 0.26 0.16 0.09 0.07 0.05 0.02 0.01 0.01 0.02 0.05 0.04 0.03 0.03 0.05 0.06 0.08 0.09 0.08 0.07 0.06 0.04 0.03 0.02 0.02 0.02 0.02 0.02 0.03 0.02 0.02 0.01 0.01 0.01 0.01
0.00 0.01 0.04 0.11 0.34 0.71 0.77 0.42 0.21 0.19 0.27 0.46 0.53 0.39 0.28 0.25 0.15 0.07 0.06 0.04 0.03 0.02 0.02 0.02 0.04 0.04 0.03 0.03 0.04 0.05 0.06 0.07 0.07 0.07 0.05 0.04 0.04 0.04 0.03 0.02 0.02 0.03 0.03 0.02 0.01 0.01 0.01 0.01 0.01
0.00 0.01 0.02 0.06 0.17 0.31 0.31 0.25 0.20 0.20 0.30 0.35 0.43 0.36 0.21 0.21 0.18 0.09 0.08 0.05 0.02 0.02 0.02 0.03 0.04 0.04 0.04 0.03 0.03 0.04 0.05 0.06 0.06 0.05 0.04 0.04 0.04 0.04 0.04 0.03 0.03 0.04 0.04 0.02 0.02 0.01 0.01 0.01 0.01
0.00 0.00 0.02 0.04 0.12 0.21 0.23 0.24 0.25 0.27 0.32 0.44 0.49 0.43 0.27 0.20 0.17 0.15 0.17 0.08 0.03 0.02 0.02 0.03 0.05 0.05 0.04 0.04 0.04 0.04 0.04 0.05 0.05 0.05 0.05 0.04 0.04 0.05 0.05 0.04 0.03 0.04 0.05 0.04 0.02 0.02 0.01 0.01 0.01
0.00 0.00 0.01 0.03 0.08 0.14 0.21 0.22 0.24 0.30 0.42 0.59 0.51 0.39 0.31 0.26 0.25 0.21 0.14 0.07 0.04 0.03 0.03 0.04 0.06 0.06 0.05 0.05 0.05 0.05 0.05 0.06 0.05 0.05 0.05 0.05 0.06 0.06 0.06 0.05 0.04 0.07 0.08 0.06 0.04 0.02 0.02 0.02 0.02
0.00 0.00 0.00 0.02 0.05 0.09 0.13 0.21 0.31 0.33 0.46 0.58 0.44 0.34 0.40 0.45 0.39 0.27 0.17 0.10 0.07 0.05 0.05 0.05 0.05 0.06 0.06 0.07 0.07 0.06 0.07 0.08 0.08 0.07 0.07 0.07 0.07 0.08 0.09 0.08 0.08 0.08 0.10 0.11 0.08 0.05 0.04 0.04 0.03
0.00 0.00 0.00 0.00 0.02 0.07 0.07 0.13 0.23 0.30 0.44 0.45 0.41 0.45 0.65 0.58 0.31 0.25 0.20 0.12 0.09 0.09 0.07 0.07 0.08 0.10 0.10 0.09 0.10 0.10 0.10 0.10 0.10 0.10 0.10 0.10 0.11 0.13 0.15 0.13 0.14 0.15 0.16 0.17 0.17 0.14 0.12 0.12 0.12
0.00 0.00 0.00 0.00 0.01 0.03 0.06 0.14 0.20 0.28 0.38 0.46 0.56 0.62 0.57 0.46 0.27 0.25 0.22 0.16 0.11 0.09 0.07 0.07 0.08 0.10 0.11 0.10 0.11 0.12 0.12 0.13 0.13 0.14 0.15 0.16 0.18 0.30 0.38 0.41 0.46 0.43 0.41 0.38 0.34 0.34 0.33 0.29 0.21
0.00 0.00 0.00 0.00 0.01 0.02 0.05 0.15 0.27 0.34 0.44 0.63 0.90 0.91 0.60 0.51 0.39 0.33 0.34 0.24 0.14 0.09 0.07 0.09 0.09 0.10 0.10 0.10 0.16 0.17 0.20 0.23 0.19 0.27 0.36 0.38 0.45 0.47 0.41 0.65 0.78 0.78 0.85 0.78 0.72 0.87 0.74 0.55 0.43
0.00 0.00 0.00 0.00 0.00 0.02 0.06 0.12 0.19 0.31 0.61 1.01 1.11 0.92 0.69 0.70 0.60 0.45 0.56 0.46 0.25 0.17 0.13 0.15 0.16 0.16 0.17 0.20 0.20 0.23 0.29 0.43 0.39 0.41 0.56 0.72 0.71 0.58 0.48 0.60 0.88 1.06 1.22 1.16 1.28 1.41 1.03 0.97 1.03
0.00 0.00 0.00 0.00 0.01 0.02 0.03 0.06 0.12 0.32 0.77 0.88 0.84 0.70 0.67 0.80 0.68 0.65 0.77 0.61 0.48 0.39 0.34 0.35 0.35 0.39 0.37 0.39 0.40 0.40 0.46 0.61 0.68 0.84 0.92 1.07 1.08 0.93 0.82 0.83 0.94 1.16 1.34 1.66 1.73 1.62 1.52 1.51 1.41
0.00 0.00 0.00 0.00 0.01 0.05 0.03 0.07 0.23 0.50 0.70 0.57 0.43 0.56 0.59 0.79 0.88 1.00 0.94 0.73 0.67 0.67 0.78 0.78 0.67 0.75 0.83 0.85 0.84 0.74 0.79 0.89 0.98 1.17 1.30 1.42 1.57 1.50 1.44 1.35 1.30 1.22 1.39 1.70 1.92 1.85 1.89 1.85 1.73
0.00 0.00 0.00 0.00 0.01 0.03 0.06 0.14 0.32 0.53 0.49 0.45 0.54 0.75 0.88 0.82 1.01 1.22 1.00 0.85 0.86 0.96 1.16 1.21 1.22 1.35 1.37 1.31 1.30 1.25 1.08 1.08 1.11 1.25 1.36 1.56 1.77 1.98 2.06 1.93 1.76 1.48 1.46 1.56 1.89 2.02 2.15 2.02 1.86
0.00 0.01 0.03 0.04 0.05 0.04 0.08 0.30 0.44 0.50 0.41 0.44 0.61 0.73 0.93 0.92 1.01 1.11 1.03 1.02 1.19 1.46 1.55 1.62 1.78 1.91 1.86 1.74 1.59 1.41 1.30 1.30 1.41 1.50 1.52 1.74 1.97 2.16 2.16 1.91 1.60 1.41 1.52 1.61 1.57 1.61 1.89 1.67 1.53
0.01 0.04 0.12 0.13 0.07 0.07 0.13 0.51 0.62 0.55 0.65 0.71 0.83 0.80 0.87 0.91 0.91 0.97 1.11 1.35 1.61 1.85 1.85 1.94 2.00 2.12 2.16 2.09 2.01 1.75 1.58 1.64 1.61 1.54 1.53 1.63 1.84 1.88 1.89 1.53 1.17 1.26 1.48 1.56 1.51 1.46 1.56 1.54 1.58
0.02 0.05 0.11 0.17 0.11 0.09 0.18 0.71 0.74 0.52 0.72 0.94 0.84 0.83 0.85 0.94 0.96 1.01 1.24 1.57 1.89 2.18 2.36 2.51 2.59 2.46 2.44 2.39 2.31 2.13 1.93 1.71 1.53 1.53 1.48 1.41 1.36 1.39 1.46 1.16 1.03 1.20 1.34 1.37 1.34 1.47 1.57 1.46 1.52
0.05 0.07 0.12 0.19 0.14 0.12 0.24 0.55 0.62 0.62 0.74 0.86 0.80 0.78 0.78 0.86 1.04 1.15 1.36 1.68 2.02 2.35 2.74 2.99 2.98 2.74 2.43 2.17 1.88 1.81 1.70 1.62 1.51 1.44 1.32 1.17 1.08 1.10 1.26 1.15 1.04 1.17 1.25 1.20 1.34 1.46 1.54 1.34 1.31
0.06 0.08 0.16 0.21 0.14 0.15 0.29 0.47 0.58 0.65 0.85 0.94 0.89 0.82 0.78 0.94 1.11 1.29 1.52 1.74 2.05 2.37 2.80 2.97 2.90 2.40 1.88 1.66 1.46 1.35 1.23 1.19 1.24 1.25 1.19 1.15 1.05 1.04 1.18 1.09 1.00 0.99 1.01 0.98 1.12 1.25 1.26 1.04 1.25
0.09 0.11 0.19 0.19 0.12 0.14 0.30 0.55 0.69 0.74 0.70 0.77 0.72 0.74 0.74 1.00 1.24 1.56 1.95 2.03 1.92 2.15 2.62 2.64 2.15 1.65 1.33 1.17 1.05 0.93 0.90 0.89 0.87 0.84 0.82 0.81 0.82 0.87 0.95 0.93 0.84 0.79 0.82 0.81 0.89 1.02 1.02 0.90 1.18
0.12 0.13 0.16 0.15 0.13 0.19 0.35 0.65 0.87 0.80 0.57 0.53 0.56 0.58 0.67 0.95 1.27 1.54 1.85 1.86 1.68 1.87 1.88 1.55 1.23 0.95 0.74 0.64 0.60 0.63 0.60 0.59 0.53 0.48 0.48 0.53 0.58 0.59 0.59 0.60 0.64 0.68 0.69 0.71 0.77 0.93 1.05 0.91 0.94
0.08 0.07 0.07 0.06 0.12 0.26 0.38 0.83 1.10 0.91 0.65 0.54 0.52 0.58 0.62 0.64 0.76 0.98 1.14 1.21 1.26 1.25 1.08 0.88 0.76 0.63 0.56 0.56 0.51 0.56 0.50 0.45 0.41 0.35 0.36 0.40 0.42 0.42 0.41 0.43 0.53 0.60 0.66 0.71 0.66 0.71 0.87 0.92 0.84
0.05 0.04 0.04 0.08 0.11 0.23 0.39 0.66 0.97 0.98 0.86 0.71 0.59 0.58 0.51 0.42 0.42 0.51 0.56 0.60 0.67 0.68 0.62 0.51 0.58 0.64 0.59 0.56 0.49 0.45 0.38 0.33 0.30 0.32 0.36 0.41 0.42 0.41 0.38 0.37 0.39 0.49 0.57 0.64 0.66 0.68 0.74 0.81 0.79
0.04 0.05 0.12 0.23 0.31 0.51 0.46 0.52 0.81 0.80 0.77 0.74 0.59 0.45 0.34 0.29 0.32 0.35 0.34 0.30 0.29 0.30 0.30 0.30 0.39 0.49 0.46 0.44 0.42 0.40 0.37 0.35 0.31 0.30 0.31 0.33 0.36 0.38 0.38 0.38 0.40 0.42 0.43 0.47 0.54 0.60 0.65 0.71 0.74
0.05 0.08 0.29 0.58 0.76 0.79 0.45 0.48 0.70 0.62 0.67 0.71 0.50 0.29 0.22 0.23 0.22 0.25 0.25 0.21 0.18 0.17 0.16 0.15 0.19 0.29 0.30 0.31 0.35 0.34 0.34 0.33 0.30 0.26 0.25 0.26 0.26 0.31 0.35 0.37 0.42 0.47 0.48 0.48 0.50 0.56 0.63 0.69 0.75
0.06 0.06 0.14 0.21 0.30 0.40 0.43 0.82 0.79 0.47 0.49 0.41 0.22 0.12 0.12 0.19 0.17 0.14 0.14 0.13 0.11 0.09 0.08 0.07 0.07 0.09 0.11 0.14 0.18 0.20 0.23 0.24 0.25 0.32 0.30 0.25 0.24 0.27 0.34 0.39 0.42 0.45 0.51 0.54 0.61 0.64 0.69 0.75 0.78
0.05 0.04 0.04 0.06 0.11 0.27 0.51 0.77 0.56 0.32 0.32 0.20 0.11 0.06 0.05 0.07 0.08 0.06 0.06 0.06 0.05 0.04 0.04 0.04 0.04 0.05 0.06 0.06 0.08 0.10 0.14 0.18 0.24 0.30 0.29 0.25 0.24 0.23 0.24 0.31 0.42 0.44 0.47 0.55 0.64 0.69 0.73 0.79 0.85
0.04 0.04 0.03 0.04 0.07 0.17 0.36 0.62 0.58 0.38 0.31 0.17 0.09 0.04 0.03 0.03 0.03 0.03 0.03 0.03 0.03 0.02 0.02 0.03 0.03 0.04 0.03 0.03 0.04 0.06 0.11 0.19 0.26 0.30 0.26 0.23 0.21 0.20 0.20 0.24 0.32 0.36 0.39 0.48 0.62 0.69 0.77 0.88 0.96
0.06 0.06 0.06 0.06 0.07 0.10 0.22 0.36 0.28 0.26 0.20 0.12 0.06 0.04 0.02 0.01 0.01 0.01 0.01 0.01 0.01 0.01 0.02 0.02 0.02 0.03 0.02 0.02 0.03 0.07 0.17 0.21 0.27 0.42 0.40 0.25 0.19 0.18 0.17 0.18 0.19 0.21 0.24 0.33 0.50 0.70 0.82 0.93 0.98
0.07 0.07 0.06 0.07 0.07 0.07 0.10 0.18 0.13 0.14 0.10 0.07 0.05 0.02 0.01 0.01 0.01 0.00 0.00 0.01 0.01 0.01 0.01 0.01 0.02 0.02 0.02 0.02 0.02 0.05 0.15 0.20 0.23 0.31 0.34 0.26 0.21 0.18 0.16 0.15 0.14 0.13 0.16 0.25 0.42 0.59 0.75 0.90 1.01